TimeEDT,TemperatureF,Dew PointF,Humidity,Sea Level PressureIn,VisibilityMPH,Wind Direction,Wind SpeedMPH,Gust SpeedMPH,PrecipitationIn,Events,Conditions,WindDirDegrees,DateUTC
12:15 AM,39.2,28.4,65,29.90,10.0,WNW,19.6,28.8,N/A,,Scattered Clouds,300,2013-05-12 04:15:00
12:35 AM,39.2,28.4,65,29.91,10.0,NW,20.7,27.6,N/A,,Clear,310,2013-05-12 04:35:00
12:55 AM,39.2,28.4,65,29.91,10.0,WNW,19.6,29.9,N/A,,Mostly Cloudy,300,2013-05-12 04:55:00
1:15 AM,39.2,28.4,65,29.91,10.0,WNW,18.4,29.9,N/A,,Overcast,300,2013-05-12 05:15:00
1:35 AM,37.4,28.4,70,29.91,10.0,NW,19.6,28.8,N/A,,Overcast,310,2013-05-12 05:35:00
1:55 AM,37.4,28.4,70,29.91,10.0,WNW,19.6,27.6,N/A,,Overcast,300,2013-05-12 05:55:00
2:15 AM,37.4,28.4,70,29.91,10.0,WNW,18.4,25.3,N/A,,Overcast,290,2013-05-12 06:15:00
2:35 AM,37.4,28.4,70,29.91,10.0,WNW,17.3,32.2,N/A,,Overcast,300,2013-05-12 06:35:00
2:55 AM,37.4,28.4,70,29.91,10.0,NW,18.4,31.1,N/A,,Overcast,310,2013-05-12 06:55:00
3:15 AM,37.4,28.4,70,29.91,10.0,NW,19.6,26.5,N/A,,Overcast,310,2013-05-12 07:15:00
3:35 AM,37.4,28.4,70,29.91,10.0,NW,19.6,26.5,N/A,,Overcast,310,2013-05-12 07:35:00
3:55 AM,37.4,28.4,70,29.91,10.0,WNW,21.9,27.6,N/A,,Overcast,300,2013-05-12 07:55:00
4:15 AM,37.4,28.4,70,29.92,10.0,WNW,18.4,25.3,N/A,,Overcast,300,2013-05-12 08:15:00
4:35 AM,37.4,26.6,65,29.92,10.0,NW,18.4,25.3,N/A,,Overcast,310,2013-05-12 08:35:00
4:55 AM,37.4,26.6,65,29.92,10.0,NW,13.8,27.6,N/A,,Overcast,310,2013-05-12 08:55:00
5:35 AM,37.4,26.6,65,29.92,10.0,NW,18.4,32.2,N/A,,Overcast,310,2013-05-12 09:35:00
5:55 AM,37.4,26.6,65,29.93,10.0,NW,18.4,32.2,N/A,,Overcast,310,2013-05-12 09:55:00
6:15 AM,37.4,26.6,65,29.93,10.0,NW,18.4,33.4,N/A,,Overcast,310,2013-05-12 10:15:00
6:35 AM,37.4,28.4,70,29.94,10.0,NW,17.3,26.5,N/A,,Overcast,310,2013-05-12 10:35:00
6:55 AM,37.4,28.4,70,29.95,10.0,NW,18.4,32.2,N/A,,Overcast,310,2013-05-12 10:55:00
7:15 AM,37.4,28.4,70,29.95,10.0,NW,13.8,28.8,N/A,,Overcast,320,2013-05-12 11:15:00
7:35 AM,37.4,28.4,70,29.96,10.0,NW,18.4,27.6,N/A,,Overcast,320,2013-05-12 11:35:00
7:55 AM,37.4,28.4,70,29.97,10.0,NW,21.9,26.5,N/A,,Overcast,310,2013-05-12 11:55:00
8:15 AM,37.4,28.4,70,29.98,10.0,NW,16.1,27.6,N/A,,Overcast,310,2013-05-12 12:15:00
8:35 AM,37.4,26.6,65,29.98,10.0,NW,20.7,25.3,N/A,,Overcast,320,2013-05-12 12:35:00
8:55 AM,37.4,28.4,70,29.99,10.0,NW,17.3,24.2,N/A,,Overcast,310,2013-05-12 12:55:00
9:15 AM,37.4,28.4,70,29.99,10.0,NW,17.3,26.5,N/A,,Overcast,320,2013-05-12 13:15:00
9:35 AM,37.4,26.6,65,30.00,10.0,NW,17.3,25.3,N/A,,Overcast,310,2013-05-12 13:35:00
9:55 AM,37.4,26.6,65,30.00,10.0,NW,15.0,31.1,N/A,,Overcast,320,2013-05-12 13:55:00
10:15 AM,37.4,26.6,65,30.01,10.0,NW,18.4,27.6,N/A,,Overcast,320,2013-05-12 14:15:00
10:35 AM,37.4,24.8,60,30.02,10.0,NW,19.6,27.6,N/A,,Overcast,310,2013-05-12 14:35:00
10:55 AM,35.6,24.8,65,30.02,10.0,NW,18.4,29.9,N/A,,Overcast,320,2013-05-12 14:55:00
11:15 AM,35.6,24.8,65,30.03,10.0,NNW,19.6,25.3,N/A,,Overcast,330,2013-05-12 15:15:00
11:35 AM,35.6,23.0,60,30.04,10.0,NW,19.6,27.6,N/A,,Overcast,320,2013-05-12 15:35:00
11:55 AM,35.6,23.0,60,30.04,10.0,NW,15.0,29.9,N/A,,Overcast,320,2013-05-12 15:55:00
12:15 PM,35.6,24.8,65,30.05,10.0,NW,18.4,25.3,N/A,,Overcast,310,2013-05-12 16:15:00
12:35 PM,37.4,24.8,60,30.05,10.0,NW,18.4,23.0,N/A,,Overcast,310,2013-05-12 16:35:00
12:55 PM,37.4,21.2,52,30.06,10.0,NW,23.0,28.8,N/A,,Overcast,310,2013-05-12 16:55:00
1:15 PM,37.4,23.0,56,30.06,10.0,NW,16.1,25.3,N/A,,Overcast,310,2013-05-12 17:15:00
1:35 PM,37.4,24.8,60,30.06,10.0,NW,15.0,26.5,N/A,,Overcast,310,2013-05-12 17:35:00
1:55 PM,37.4,23.0,56,30.07,10.0,NW,17.3,27.6,N/A,,Overcast,310,2013-05-12 17:55:00
2:15 PM,37.4,24.8,60,30.07,10.0,NNW,16.1,23.0,N/A,,Overcast,330,2013-05-12 18:15:00
2:35 PM,37.4,24.8,60,30.07,10.0,NNW,16.1,24.2,N/A,,Overcast,330,2013-05-12 18:35:00
2:55 PM,37.4,24.8,60,30.07,10.0,NNW,15.0,24.2,N/A,,Overcast,340,2013-05-12 18:55:00
3:15 PM,39.2,24.8,56,30.07,10.0,North,11.5,21.9,N/A,,Overcast,350,2013-05-12 19:15:00
3:35 PM,39.2,24.8,56,30.07,10.0,NW,15.0,21.9,N/A,,Mostly Cloudy,310,2013-05-12 19:35:00
3:55 PM,39.2,24.8,56,30.07,10.0,NW,18.4,23.0,N/A,,Scattered Clouds,320,2013-05-12 19:55:00
4:15 PM,39.2,23.0,52,30.07,10.0,NNW,11.5,18.4,N/A,,Mostly Cloudy,340,2013-05-12 20:15:00
4:35 PM,39.2,23.0,52,30.07,10.0,NNW,15.0,19.6,N/A,,Overcast,330,2013-05-12 20:35:00
4:55 PM,39.2,24.8,56,30.07,10.0,NNW,15.0,21.9,N/A,,Scattered Clouds,330,2013-05-12 20:55:00
5:15 PM,41.0,24.8,53,30.07,10.0,NW,12.7,17.3,N/A,,Scattered Clouds,320,2013-05-12 21:15:00
5:35 PM,41.0,21.2,45,30.08,10.0,NW,15.0,19.6,N/A,,Scattered Clouds,320,2013-05-12 21:35:00
5:55 PM,41.0,24.8,53,30.08,10.0,North,9.2,-,N/A,,Clear,350,2013-05-12 21:55:00
6:15 PM,41.0,24.8,53,30.09,10.0,North,10.4,-,N/A,,Clear,350,2013-05-12 22:15:00
6:35 PM,41.0,24.8,53,30.09,10.0,North,15.0,20.7,N/A,,Clear,10,2013-05-12 22:35:00
6:55 PM,39.2,21.2,49,30.10,10.0,North,11.5,16.1,N/A,,Clear,350,2013-05-12 22:55:00
7:15 PM,39.2,21.2,49,30.09,10.0,North,11.5,17.3,N/A,,Clear,350,2013-05-12 23:15:00
7:35 PM,39.2,23.0,52,30.09,10.0,North,11.5,-,N/A,,Clear,360,2013-05-12 23:35:00
7:55 PM,39.2,21.2,49,30.09,10.0,North,8.1,-,N/A,,Clear,10,2013-05-12 23:55:00
8:15 PM,39.2,21.2,49,30.10,10.0,North,10.4,-,N/A,,Clear,10,2013-05-13 00:15:00
8:35 PM,39.2,21.2,49,30.10,10.0,North,10.4,-,N/A,,Clear,350,2013-05-13 00:35:00
8:55 PM,37.4,21.2,52,30.10,10.0,NNW,5.8,-,N/A,,Clear,340,2013-05-13 00:55:00
9:15 PM,37.4,21.2,52,30.10,10.0,NNW,4.6,-,N/A,,Clear,340,2013-05-13 01:15:00
9:35 PM,37.4,21.2,52,30.10,10.0,NNE,3.5,-,N/A,,Clear,20,2013-05-13 01:35:00
9:55 PM,35.6,23.0,60,30.11,10.0,Calm,Calm,-,N/A,,Clear,0,2013-05-13 01:55:00
10:15 PM,33.8,23.0,65,30.12,10.0,Calm,Calm,-,N/A,,Clear,0,2013-05-13 02:15:00
10:35 PM,32.0,23.0,69,30.12,10.0,Calm,Calm,-,N/A,,Clear,0,2013-05-13 02:35:00
10:55 PM,30.2,23.0,75,30.12,10.0,Calm,Calm,-,N/A,,Clear,0,2013-05-13 02:55:00
11:15 PM,30.2,23.0,75,30.12,10.0,Calm,Calm,-,N/A,,Clear,0,2013-05-13 03:15:00
11:35 PM,28.4,24.8,86,30.12,10.0,Calm,Calm,-,N/A,,Clear,0,2013-05-13 03:35:00
11:55 PM,28.4,23.0,80,30.12,10.0,Calm,Calm,-,N/A,,Clear,0,2013-05-13 03:55:00